Location: Newark
(50.1751°N, 5.6239°W)
Time: 14:19:33
(UTC+00:00)

Nauka - Pass Details

Date: 26 September 2021
Orbit: 417 x 423 km, 51.6° (Epoch: 24 October)

Event Time Altitude Azimuth Distance (km) Brightness Sun altitude
Rises 20:31:05 0° 285° (WNW) 2,368 ? -22.5°
Reaches altitude 10° 20:33:11 10° 285° (WNW) 1,503 ? -22.8°
Enters shadow 20:35:42 47° 285° (WNW) 564 ? -23.1°
